Location: ??
(35.5052°N, 139.7262°E)
Time: 02:54:26
(UTC+00:00)

Meteor 2-11 Rocket - Pass Details

Date: 20 June 2021
Orbit: 938 x 958 km, 82.5° (Epoch: 26 July)

Event Time Altitude Azimuth Distance (km) Brightness Sun altitude
Rises 12:06:48 0° 352° (N) 3,622 8.5 -20.5°
Reaches altitude 10° 12:09:18 10° 352° (N) 2,670 7.7 -20.8°
Maximum altitude 12:15:25 83° 264° (W) 952 4.4 -21.5°
Enters shadow 12:18:06 36° 180° (S) 1,455 5.0 -21.8°
